Location: Montreal
(45.5087°N, 73.5540°W)
Time: 08:26:57
(UTC-04:00)

Envisat - Visible Passes

Search period start: 25 May 2017 00:00
Search period end: 04 June 2017 00:00
Orbit: 764 x 766 km, 98.2° (Epoch: 24 May)

Date Brightness Start Highest point End Pass type
(mag) Time Alt. Az. Time Alt. Az. Time Alt. Az.
25 May 3.9 21:18:12 10° S 21:23:07 50° W 21:28:05 10° NNW visible
26 May 5.5 22:23:22 10° WSW 22:25:59 14° W 22:28:37 10° WNW visible
27 May 4.7 21:44:29 10° SSW 21:48:54 30° W 21:53:20 10° NW visible
28 May 3.5 21:06:59 10° S 21:12:01 63° WSW 21:17:05 10° NNW visible
29 May 5.4 22:11:25 10° SW 22:14:47 18° W 22:18:09 10° NW visible
30 May 4.4 21:33:04 10° SSW 21:37:44 37° W 21:42:27 10° NNW visible
01 Jun 5.2 21:59:41 10° SW 22:03:35 22° W 22:07:30 10° NW visible
02 Jun 4.0 21:21:45 10° S 21:26:36 46° W 21:31:30 10° NNW visible
03 Jun 5.6 22:27:19 10° WSW 22:29:31 13° W 22:31:44 10° WNW visible
